Regional Weather Roundup
Issued by NWS

Home | Current Version | Previous Version | Text Only | Print | Product List | Glossary Off
Versions: 1 2 3 4 5 6 7 8 9 10 11 12 13 14 15 16 17 18 19 20 21 22 23 24 25 26 27 28 29 30 31 32 33 34 35 36 37 38 39 40 41 42 43 44 45 46 47 48 49 50

000
ASUS44 KOUN 190700
RWROK

WEATHER ROUNDUP FOR OKLAHOMA
NATIONAL WEATHER SERVICE NORMAN OK
200 AM CDT SAT APR 19 2014

NOTE: "FAIR" INDICATES FEW OR NO CLOUDS BELOW 12,000 FEET WITH NO
      SIGNIFICANT WEATHER AND/OR OBSTRUCTIONS TO VISIBILITY.

OKZ001>007-009>012-014-015-017-190800-
NORTHWEST OKLAHOMA AND THE PANHANDLE

CITY           SKY/WX    TMP DP  RH WIND       PRES   REMARKS
GAGE           MOCLDY    56  47  71 S15       30.08F
$$

OKZ016-021>023-033>039-044-045-190800-
SOUTHWEST OKLAHOMA

CITY           SKY/WX    TMP DP  RH WIND       PRES   REMARKS
LAWTON/REGL    MOCLDY    50  46  86 CALM      30.14S
LAWTON/FT SILL MOCLDY    55  48  77 SE3       30.12F
FREDERICK      CLOUDY    56  51  84 SE9       30.09F
CLINTON        PTCLDY    52  48  86 S9        30.13F
HOBART         MOCLDY    53  49  86 S9        30.12F
ALTUS AFB      CLOUDY    49  48  96 SE3       30.12S
$$

OKZ018>020-024>031-190800-
CENTRAL OKLAHOMA

CITY           SKY/WX    TMP DP  RH WIND       PRES   REMARKS
OKLAHOMA CITY  MOCLDY    52  42  69 S6        30.14S
OKC/WILEY POST PTCLDY    53  41  63 S7        30.14F
STILLWATER     PTCLDY    54  42  64 SE6       30.14F
GUTHRIE        PTCLDY    57  42  57 SE7       30.13F
$$

OKZ008-013-054>072-190800-
NORTHEAST OKLAHOMA

CITY           SKY/WX    TMP DP  RH WIND       PRES   REMARKS
TULSA          CLEAR     54  44  69 CALM      30.14S
TULSA/JONES    CLEAR     51  44  77 CALM      30.15S
PONCA CITY     CLEAR     56  40  55 SE9       30.13F
BARTLESVILLE   CLEAR     43  40  89 CALM      30.16S
MUSKOGEE       CLEAR     52  46  80 SE7       30.17S
$$

OKZ032-040>043-046>053-073>077-190800-
SOUTH CENTRAL/SOUTHEAST OKLAHOMA

CITY           SKY/WX    TMP DP  RH WIND       PRES   REMARKS
MCALESTER      PTCLDY    57  43  59 SE6       30.17S
$$




USA.gov is the U.S. government's official web portal to all federal, state and local government web resources and services.